TIME,DELAY(SENSOR),PRES,T(CTD),SAL,OXYGEN,RAWTEMP,T(OPTODE),TCPHASE,FLUOR,BETA(BETA700),BETA(BETA412),BETA(BETA440),CDOM,C(CSC),ED(ED412.40),ED(ED444.00),ED(ED489.70),ED(ED554.30),LU(LU411.80),LU(LU443.40),LU(LU489.60),LU(LU554.10),COMP,TILTX,TILTX(TILTY),CHECK
1378157852,5807,494.6700134277344000,6.8540000915527340,34.1371994018554700,77.6235427856445300,592.5167236328125000,6.8257389068603520,49.0796394348144500,52,102,87,80,77,15224,2147747035,2147426038,2148006610,2147872000,2147626660,2147072676,2148247369,2147202788,3060,4,13,39553
1378157967,5808,483.3599853515625000,6.9611001014709470,34.1072006225585940,87.4598464965820300,587.9105834960938000,6.9741082191467285,47.8708114624023440,51,103,83,80,77,15226,2147747730,2147423652,2148006692,2147873590,2147627209,2147077833,2148248155,2147203821,2193,4,12,61422
1378158084,5808,471.4599914550781000,7.5822000503540040,34.1641006469726560,85.0481262207031200,570.7910766601562000,7.5238590240478520,47.8915481567382800,52,103,87,80,77,15220,2147745152,2147425920,2148006464,2147875282,2147624978,2147077878,2148246491,2147199597,961,3,13,65104
1378158187,5809,461.0700073242187500,7.7336997985839840,34.1370010375976560,98.5555267333984400,564.8958740234375000,7.7125678062438965,46.2966804504394500,51,104,88,80,75,15223,2147740964,2147426267,2148006738,2147876086,2147623360,2147085577,2148236589,2147204498,3291,4,13,29966
1378158302,5809,449.6000061035156000,7.8684000968933105,34.1486015319824200,102.6434020996093800,559.0338745117188000,7.8999161720275880,45.7693405151367200,51,105,84,80,76,15222,2147745261,2147427401,2148007021,2147873152,2147621860,2147083529,2148241078,2147200941,2582,4,13,46915
1378158431,5807,438.6499938964844000,8.2379999160766600,34.1637992858886700,104.1504974365234400,548.7954101562500000,8.2264394760131840,45.4490699768066400,51,106,87,79,76,15220,2147741604,2147426925,2148006656,2147875776,2147617325,2147084278,2148239314,2147203410,1386,3,13,46878
1378158597,5805,427.8800048828125000,8.3704996109008790,34.1710014343261700,105.0363006591796900,544.7584838867188000,8.3549442291259770,45.2936096191406250,51,104,84,79,76,15218,2147739062,2147425956,2148005888,2147872182,2147617188,2147093037,2148236562,2147206144,978,4,13,15188
1378158755,5809,415.6199951171875000,8.2195997238159180,34.1127014160156250,121.8684997558593800,549.3646850585938000,8.2083044052124020,43.6936416625976560,50,103,89,79,74,15222,2147740361,2147427712,2148009261,2147873270,2147623405,2147088640,2148233654,2147204004,330,4,13,1597
1378158870,5810,404.8599853515625000,8.3325996398925780,34.1006011962890600,140.6094055175781200,545.3784179687500000,8.3352193832397460,41.9421806335449200,50,103,89,80,73,15225,2147740288,2147426020,2148006208,2147872749,2147618084,2147084260,2148233609,2147202651,706,3,13,1237
1378158987,5809,394.0599975585937500,8.5401000976562500,34.0998001098632800,147.7270965576172000,539.1105957031250000,8.5345096588134770,41.2377090454101560,50,102,88,80,73,15223,2147740754,2147426724,2148007012,2147874139,2147618313,2147088960,2148231158,2147206592,3037,4,13,3679
1378159102,5808,383.6799926757812500,8.8416996002197270,34.1104011535644500,151.9786987304687500,529.8900756835938000,8.8271179199218750,40.7319793701171900,50,104,83,80,73,15221,2147738761,2147428516,2148005129,2147875145,2147616073,2147089417,2148228260,2147203410,2142,4,13,29263
1378159229,5807,372.6000061035156000,9.2843999862670900,34.1152992248535160,161.4237976074218800,515.9873046875000000,9.2670812606811520,39.7521514892578100,50,105,86,79,71,15220,2147737517,2147423853,2148006976,2147871862,2147615844,2147092333,2148231625,2147203949,1793,3,13,42147
1378159370,5808,362.0299987792969000,9.7555999755859380,34.1296997070312500,163.9792022705078000,500.3287963867187500,9.7609024047851560,39.2906188964843750,50,103,91,79,71,15220,2147735469,2147427602,2148007232,2147873106,2147612763,2147097691,2148231579,2147204480,865,3,13,8803
1378159545,5809,350.8599853515625000,10.0684995651245120,34.1290016174316400,172.2406005859375000,490.7384948730469000,10.0625000000000000,38.5184211730957000,49,107,86,80,71,15220,2147735085,2147425490,2148009060,2147875373,2147606875,2147098331,2148222080,2147206738,1074,3,13,17745
1378159697,5806,339.7399902343750000,10.4020996093750000,34.1346015930175800,181.9754943847656200,479.7309875488281000,10.4079103469848630,37.6507911682128900,48,104,86,81,69,15221,2147730724,2147426194,2148009910,2147874797,2147607744,2147100873,2148225801,2147205229,635,3,13,60374
1378159836,5807,327.9700012207031000,10.7335996627807620,34.1386985778808600,186.3968963623047000,469.1676025390625000,10.7386503219604500,37.1771316528320300,48,103,85,80,69,15218,2147733549,2147425865,2148012333,2147875245,2147609106,2147104905,2148224877,2147206299,2952,4,13,44146
1378159965,5810,316.8399963378906000,11.2375001907348630,34.1459999084472660,190.2640075683593800,453.3822937011719000,11.2316102981567380,36.6629791259765600,48,104,89,80,68,15214,2147729417,2147427282,2148016310,2147873435,2147606262,2147106185,2148220224,2147209142,2933,3,14,40243
1378160092,5809,306.1600036621094000,11.8708000183105470,34.1912002563476560,202.5442962646484400,433.5599975585937500,11.8486204147338870,35.5715713500976560,48,103,88,79,67,15217,2147728393,2147426276,2148026029,2147875858,2147601490,2147111387,2148224109,2147204708,1458,3,13,11301
1378160221,5810,295.6499938964844000,12.3828001022338870,34.2127990722656250,208.7727050781250000,415.9563903808594000,12.3948297500610350,34.9222602844238300,49,104,83,80,68,15215,2147725824,2147435318,2148031213,2147875611,2147600530,2147114313,2148221668,2147207058,1352,3,13,6283
1378160360,5808,284.4400024414062500,12.8287000656127930,34.2374992370605500,208.9971008300781200,402.6697082519531000,12.8061103820800780,34.7004814147949200,49,105,85,80,68,15214,2147726464,2147435117,2148046061,2147871570,2147597037,2147117760,2148229074,2147206985,151,3,13,25668
1378160499,5808,273.7999877929687500,13.4671001434326170,34.2872009277343750,210.6817016601562500,381.7296142578125000,13.4527196884155270,34.2791213989257800,49,105,85,79,67,15219,2147723419,2147440301,2148061330,2147873691,2147596032,2147133558,2148229275,2147209709,1822,3,14,27540
1378160628,5806,262.3599853515625000,14.1577997207641600,34.3527984619140600,212.4951019287109400,359.2556152343750000,14.1447801589965820,33.8343696594238300,48,106,85,79,66,15213,2147722358,2147448484,2148084854,2147872548,2147590390,2147139958,2148239963,2147210102,3504,3,14,12288
1378160741,5807,250.6000061035156200,14.8587999343872070,34.4239997863769500,212.7227020263672000,335.8221130371094000,14.8646097183227540,33.4709587097168000,47,104,89,79,66,15213,2147722368,2147460626,2148121042,2147873801,2147591917,2147155355,2148253586,2147209060,2289,2,14,34728
1378160844,5811,240.5099945068359400,15.3613996505737300,34.4823989868164060,212.4165039062500000,319.4079895019531000,15.3678903579711910,33.2460517883300800,48,103,87,80,66,15211,2147719862,2147478701,2148166701,2147873728,2147586825,2147164050,2148274358,2147215579,1054,3,13,20710
1378160973,5809,229.5700073242187500,15.9091997146606450,34.5401992797851560,211.7761993408203000,301.4912109375000000,15.9165496826171880,33.0205802917480500,49,106,86,79,66,15209,2147721545,2147503963,2148232813,2147873929,2147585993,2147179209,2148301805,2147222354,2793,3,13,51495
1378161136,5805,219.0399932861328000,16.9025001525878900,34.6515998840332000,209.9683990478515600,269.5477905273437500,16.8933601379394530,32.6623802185058600,50,106,88,81,66,15209,2147722962,2147537417,2148315830,2147873462,2147582738,2147208411,2148337060,2147223542,298,3,14,60004
1378161297,5806,206.8800048828125000,17.6429996490478500,34.7428016662597660,211.2928924560547000,243.0718994140625000,17.7021408081054700,32.2146987915039060,50,103,86,80,63,15204,2147732918,2147602742,2148458322,2147874925,2147580589,2147253476,2148405522,2147228370,2933,2,15,38331
1378161400,5807,197.4900054931640600,18.4654006958007800,34.8552017211914060,214.6473999023437500,218.0563049316406200,18.4660797119140620,31.6842994689941400,52,105,87,80,63,15199,2147749357,2147671698,2148613997,2147876288,2147587684,2147298038,2148482313,2147231588,1307,2,14,63182
1378161455,5804,192.1399993896484400,18.6686000823974600,34.8786010742187500,214.2588043212890600,211.3574066162109400,18.6706695556640620,31.6130695343017580,52,105,87,80,64,15198,2147762678,2147722816,2148725970,2147877065,2147586697,2147333366,2148528960,2147235035,810,2,14,5895
1378161534,5808,184.9299926757812500,19.0933990478515620,34.9384002685546900,213.4882965087890600,197.7561950683593800,19.0861301422119140,31.4685592651367200,55,108,87,81,63,15194,2147785426,2147802130,2148910601,2147873014,2147598765,2147392795,2148615990,2147244480,130,3,14,47570
1378161589,5806,180.3099975585937500,19.3738994598388670,34.9739990234375000,213.5673065185547000,188.9364929199218800,19.3556098937988280,31.3444099426269530,57,111,87,81,64,15190,2147807104,2147878811,2149055524,2147876315,2147607213,2147427593,2148682925,2147245083,517,3,14,22713
1378161644,5806,176.0299987792968800,19.7226009368896500,35.0248985290527340,214.6768951416015600,177.1690063476562500,19.7152900695800780,31.1254806518554700,60,113,88,81,64,15186,2147833325,2147943734,2149189056,2147877430,2147616420,2147474944,2148750198,2147253248,492,2,15,55193
1378161699,5807,171.8999938964843800,19.8808994293212900,35.0499992370605500,216.4978942871093800,171.7821044921875000,19.8800106048584000,30.9568500518798830,63,111,86,81,63,15183,2147860873,2148029558,2149368758,2147877732,2147626176,2147527021,2148827556,2147259328,383,2,14,39814
1378161754,5811,167.9700012207031200,20.1933002471923830,35.0914993286132800,217.3638000488281200,160.9201049804687500,20.2122707366943360,30.7661094665527340,70,113,87,81,61,15175,2147890907,2148108242,2149526738,2147880502,2147640374,2147574116,2148905728,2147262710,3033,2,15,407
1378161809,5806,164.3000030517578000,20.3794994354248050,35.1153984069824200,218.1529998779297000,155.8069000244140600,20.3687496185302730,30.6568298339843750,74,116,88,80,62,15170,2147929901,2148214720,2149741412,2147881334,2147653988,2147631762,2148993115,2147272100,2607,2,15,10602
1378161893,5808,159.3399963378906200,20.5631999969482420,35.1327018737793000,217.8827056884765600,149.8513031005859400,20.5510692596435550,30.5918998718261720,78,115,87,81,62,15170,2147988955,2148361088,2150027830,2147884845,2147674203,2147709778,2149118829,2147281810,1973,2,15,1527
1378161972,5807,155.7299957275390600,20.7479000091552730,35.1437988281250000,217.7996063232422000,143.2570037841797000,20.7530307769775400,30.5088405609130860,81,114,87,81,60,15166,2148057426,2148510838,2150318866,2147885284,2147704841,2147792118,2149241910,2147287405,2105,2,15,7296
1378162075,5810,151.5299987792968800,21.0030994415283200,35.1782989501953100,218.5666961669922000,137.1233978271484400,20.9409599304199220,30.3883495330810550,84,116,89,82,62,15155,2148167433,2148747776,2150735515,2147889170,2147746678,2147907392,2149415104,2147301723,2323,2,15,11586
1378162168,5806,147.9199981689453000,21.0720005035400400,35.1865997314453100,220.2095031738281200,133.0975952148437500,21.0643596649169920,30.2511596679687500,89,117,87,82,60,15152,2148300114,2149020059,2151199122,2147893293,2147796306,2148044443,2149604937,2147318674,2487,2,15,61384
1378162259,5809,143.7299957275390600,21.1868000030517580,35.1990013122558600,220.7850036621093800,129.8448028564453000,21.1641006469726560,30.1790790557861330,92,121,88,81,61,15142,2148490194,2149376804,2151804114,2147902317,2147870665,2148220196,2149854546,2147337718,2732,2,15,19933
1378162350,5808,139.5000000000000000,21.4948005676269530,35.2224998474121100,221.7733001708984400,120.1507034301757800,21.4615001678466800,30.0026607513427730,105,123,89,82,62,15134,2148733568,2149831378,2152548827,2147911451,2147965193,2148438774,2150150052,2147361426,3518,2,16,62774
1378162441,5807,136.0599975585937500,21.5883998870849600,35.2289009094238300,223.6045989990234400,117.0335006713867200,21.5571804046630860,29.8702297210693360,110,123,89,82,62,15124,2148943798,2150219181,2153214390,2147919963,2148039972,2148614829,2150408859,2147381888,3501,2,15,31488
1378162582,5807,132.4400024414062500,21.7761993408203120,35.2518997192382800,225.8025970458984400,110.2595977783203100,21.7652091979980470,29.6734790802001950,118,122,90,82,61,15121,2149185334,2150638125,2153912594,2147931830,2148130742,2148778889,2150644745,2147402486,2995,2,15,34186
1378162877,5810,127.9000015258789000,22.1035003662109380,35.2672004699707000,229.1360015869140600,99.4452209472656200,22.0976200103759770,29.3718891143798830,121,124,90,82,60,15107,2149998381,2151938340,2155759478,2147960521,2148419766,2149306688,2151293257,2147462966,3217,2,15,19848
1378162980,5810,123.4499969482421900,22.1688003540039060,35.2669982910156250,229.2835998535156200,97.0839767456054700,22.1702499389648440,29.3345909118652340,130,120,90,82,59,15095,2150855158,2153283858,2157594075,2147987657,2148725065,2149831195,2151938212,2147523812,2339,2,15,30947
1378163059,5806,119.3099975585937500,22.2856006622314450,35.2733001708984400,230.1885986328125000,94.0685577392578100,22.2630290985107420,29.2525901794433600,130,120,91,80,61,15097,2151827465,2154750976,2159558601,2148029275,2149069366,2150412434,2152644818,2147591570,2415,2,15,21987
1378163143,5805,114.4199981689453100,22.4465999603271500,35.2701988220214840,231.7584991455078000,88.8602600097656200,22.4233608245849600,29.1114006042480470,120,118,88,82,61,15100,2153382016,2157008557,2162473755,2148098541,2149626541,2151334902,2153708644,2147693906,2548,2,15,28538
1378163198,5810,111.1900024414062500,22.6348991394042970,35.2962989807128900,234.4597015380859400,82.7607269287109400,22.6112403869628900,28.9068794250488280,116,119,88,82,61,15094,2154651629,2158821595,2164758957,2148153755,2150103396,2152065024,2154529883,2147777563,2500,2,15,24779
1378163277,5809,107.5800018310546900,22.7122993469238280,35.3031005859375000,236.4902954101562500,79.4906768798828100,22.7120304107666000,28.7711296081542970,115,117,89,83,61,15097,2156406290,2161111323,2167301805,2148227291,2150814153,2153108160,2155598363,2147879542,2986,1,15,62532
1378163392,5807,104.3600006103515600,22.9016990661621100,35.3040008544921900,237.9992980957031200,73.6388931274414000,22.8924903869628900,28.6281204223632800,105,121,87,83,59,15097,2158985069,2164390665,2170720109,2148307757,2151900013,2154615634,2157076553,2148027355,3123,1,16,935
1378163665,5809,100.1600036621093800,23.1802005767822270,35.3055000305175800,239.5294036865234400,64.9333572387695300,23.1612091064453120,28.4492301940917970,89,124,91,83,58,15085,2164186614,2170677650,2176760073,2148485659,2154262592,2157810276,2160094281,2148308882,3458,1,16,19845
1378163720,5808,98.4899978637695300,23.2122001647949220,35.3059005737304700,239.6916961669922000,63.1920089721679700,23.2150001525878900,28.4199295043945300,90,127,88,83,58,15081,2165571346,2172212141,2178146432,2148551094,2154952896,2158727058,2160965065,2148397476,3569,1,15,58909
1378163804,5807,95.0100021362304700,23.3038997650146500,35.3056983947753900,240.4149017333984400,60.5046615600585940,23.2980403900146500,28.3538398742675780,87,124,93,83,60,15079,2169727515,2177272786,2183300324,2148766656,2156830281,2161170112,2163229156,2148630043,2554,1,16,50478
1378163859,5808,91.8600006103515600,23.4624004364013670,35.3033981323242200,240.3314056396484400,56.0226593017578100,23.4365997314453120,28.3015193939209000,82,124,92,84,59,15074,2173596068,2181653174,2187521837,2148973120,2158759149,2163654317,2165502006,2148862025,2425,1,16,52051
1378163914,5808,89.0100021362304700,23.5725994110107420,35.3086013793945300,240.9535064697265600,52.6662597656250000,23.5404205322265620,28.2317695617675780,81,126,88,83,58,15075,2177403913,2185964900,2191942354,2149221092,2160589366,2165960320,2167515419,2149070848,2785,2,15,48599
1378163969,5806,86.6600036621093800,23.7301998138427730,35.3044013977050800,242.1226959228515600,46.9282608032226560,23.7180309295654300,28.1081504821777340,79,129,90,85,59,15067,2180856237,2189573686,2195209261,2149428022,2162394185,2168161609,2169381028,2149264996,2910,1,15,54166
1378164024,5802,84.7099990844726600,23.8556003570556640,35.3144989013671900,243.7008972167968800,43.1642990112304700,23.8346195220947270,27.9914894104003900,79,124,90,85,59,15066,2184165430,2193325696,2198755867,2149664502,2164363776,2170490806,2171260873,2149478729,2269,1,16,54900
1378164081,5808,83.0500030517578100,23.8577003479003900,35.3137016296386700,244.9689941406250000,42.5949592590332000,23.8522605895996100,27.9288196563720700,78,128,91,86,58,15062,2187390363,2196790564,2202084973,2149875419,2166243556,2172783076,2173119926,2149673947,1720,1,16,16227
1378164148,5812,81.3899993896484400,24.0233001708984380,35.3231010437011700,246.3155059814453000,38.3077888488769500,23.9851493835449220,27.8169898986816400,76,128,91,85,59,15057,2190711323,2200116050,2205042404,2150065481,2168399405,2175373558,2175283666,2149886034,1188,2,16,41688
1378164251,5805,79.3899993896484400,24.1798992156982420,35.3296012878418000,247.6623992919922000,33.6607704162597660,24.1292991638183600,27.7013702392578120,75,129,93,84,56,15062,2195088000,2204927716,2209767844,2150447908,2170978660,2178348964,2177623268,2150154377,1512,2,16,32835
1378164342,5810,77.4300003051757800,24.2329006195068360,35.3348999023437500,248.9539031982422000,30.9432201385498050,24.2136402130126950,27.6124706268310550,76,129,92,86,58,15064,2198999131,2209175113,2214026029,2150814098,2173356864,2181135744,2179941220,2150431451,1456,2,16,29719
1378164438,5808,74.5800018310546900,24.4456005096435550,35.3303985595703100,250.1231994628906200,24.2730903625488280,24.4208297729492200,27.4808692932128900,74,130,91,87,58,15051,2205152137,2215478829,2220013339,2151551707,2177665609,2185896219,2183691565,2150880045,1932,1,16,54501
1378164493,5808,72.7600021362304700,24.5186004638671880,35.3320007324218750,251.2299041748047000,21.6062908172607420,24.5037307739257800,27.4012203216552730,72,129,97,86,56,15048,2208508836,2218566710,2222514660,2151792868,2180254720,2188743872,2185917558,2151095323,2618,1,16,59804
1378164560,5809,71.2600021362304700,24.6354007720947270,35.3128013610839840,252.1938934326172000,18.0650901794433600,24.6138706207275400,27.3173294067382800,72,135,92,87,56,15028,2213204416,2223556013,2227329517,2152289993,2183304137,2191998427,2188318601,2151369426,2540,1,16,50107
1378164663,5807,69.5400009155273400,24.9361000061035160,35.3268013000488300,252.1945037841797000,9.2624807357788090,24.8879604339599600,27.2099800109863280,68,132,91,85,59,15045,2219219428,2229364242,2232797952,2152889947,2187972955,2197328356,2192456630,2151835108,3558,1,16,57351
1378164771,5807,67.2699966430664000,25.2975997924804700,35.3380012512207000,252.9029998779297000,-2.6833178997039795,25.2606201171875000,27.0353202819824220,65,129,92,86,56,15035,2226126016,2236254043,2239183844,2153834870,2193652882,2203220370,2196694692,2152360182,3370,1,16,31576
1378164850,5805,65.3199996948242200,25.3992004394531250,35.3446006774902340,252.9432983398437500,-6.6730861663818360,25.3852691650390620,26.9852790832519530,63,130,93,90,57,15036,2231008384,2241046098,2243641563,2154433362,2197881334,2207835291,2200239780,2152814802,3396,1,16,48908
1378164929,5807,63.2099990844726560,25.4934997558593750,35.3498001098632800,252.8265075683593800,-9.9725513458251950,25.4884300231933600,26.9502906799316400,63,131,91,86,59,15042,2238017325,2248587830,2251311597,2155409197,2203369654,2213937481,2205104301,2153378642,3477,1,16,15738
1378165008,5811,61.4300003051757800,25.5587005615234380,35.3446998596191400,252.7590026855468800,-12.0719804763793950,25.5541095733642580,26.9277400970459000,64,129,92,85,58,15040,2241169792,2251441627,2254123584,2156394413,2206573220,2217189705,2207540525,2153766098,119,1,16,41562
1378165128,5808,59.4099998474121100,25.7045001983642580,35.3218994140625000,252.0525970458984400,-16.7680797576904300,25.7011108398437500,26.9003505706787100,63,132,92,87,56,15037,2252157284,2262942336,2265555456,2158029339,2215527570,2226584539,2214388214,2154655744,3474,1,16,28476
1378165416,5807,57.1100006103515600,26.2201004028320300,35.2989006042480500,248.8332061767578000,-32.6326408386230500,26.1987590789794920,26.8439407348632800,62,129,91,86,60,15032,2266654582,2276116086,2275412461,2159897627,2232954194,2243302848,2224663396,2155913353,1700,1,16,35503
1378165483,5807,55.1199989318847660,26.6312999725341800,35.2836990356445300,245.8491058349609400,-44.8557815551757800,26.5833396911621100,26.8228797912597660,60,128,92,85,53,15035,2276569115,2285768064,2284963172,2161631634,2239509714,2249477988,2228647908,2156570514,1212,1,16,22410
1378165622,5811,53.9799995422363300,26.7385005950927730,35.2906990051269500,243.5328063964843800,-49.1109886169433600,26.7174701690673830,26.8706398010253900,59,129,92,86,55,15033,2284733339,2294288374,2293295872,2163047286,2246940452,2257656758,2235052635,2157450688,1327,1,16,45498
1378165802,5806,51.2400016784668000,27.1200008392334000,35.2971992492675800,239.2859039306640600,-60.1167793273925800,27.0649890899658200,26.9221000671386720,60,129,95,86,56,15020,2295451081,2302875986,2300627062,2165799396,2257027547,2266481664,2240366674,2158450130,821,1,16,47700
1378165893,5808,49.6300010681152340,27.3041992187500000,35.3101997375488300,236.8079986572265600,-67.0098571777343800,27.2831001281738280,26.9478607177734380,60,131,93,87,54,15028,2305852498,2313880219,2310537508,2167327488,2266958738,2276401792,2247326528,2159720164,1504,1,16,3648
1378166060,5805,47.3899993896484400,27.4804000854492200,35.3115997314453100,232.9302978515625000,-73.1509933471679700,27.4777297973632800,27.0466098785400400,58,126,92,85,53,15029,2317299830,2324892004,2320840365,2171045348,2279254253,2287396379,2254201846,2160841718,1878,1,16,55435
1378166151,5810,45.3800010681152340,27.5347003936767580,35.3135986328125000,231.6000061035156200,-75.0739822387695300,27.5387306213378900,27.0834102630615230,56,124,91,86,54,15030,2263133970,2262900717,2256140013,2163048676,2246408877,2248756013,2222556416,2156576310,1491,1,17,41150
1378166242,5810,43.1300010681152340,27.6466007232666000,35.3059005737304700,230.1316986083984400,-78.4092483520507800,27.6445999145507800,27.1096992492675780,58,126,92,84,58,15026,2347182006,2352949238,2349161792,2180477110,2311731876,2318351113,2275603766,2164472429,881,1,16,26988
1378166326,5808,40.5800018310546900,27.7844009399414060,35.2793006896972660,228.3291015625000000,-82.6349487304687500,27.7788696289062500,27.1408805847167970,55,123,92,85,54,15030,2360562715,2366890998,2363681234,2186015085,2328316598,2332236708,2283800237,2165805888,3115,1,17,1182
1378166381,5805,38.2299995422363300,27.8612003326416000,35.2697982788085940,226.4806060791015600,-85.3626327514648400,27.8656196594238280,27.1930503845214840,53,121,90,86,55,15041,2369513499,2375704649,2372235492,2192989915,2345731510,2346900461,2292840603,2167949440,2899,1,16,24183
1378166436,5807,35.9700012207031250,27.8726997375488280,35.2686996459960940,225.5052947998047000,-85.8993072509765600,27.8826904296875000,27.2318897247314450,53,120,92,85,57,15028,2366416841,2370680274,2367844681,2197080850,2358839808,2357810029,2298892754,2168745645,3255,1,17,55772
1378166491,5810,33.6599998474121100,27.8782997131347660,35.2686004638671900,224.7122039794922000,-86.1841201782226600,27.8917503356933600,27.2656097412109380,52,120,93,85,57,15041,2375568274,2379395401,2376600530,2203148827,2368365970,2363851904,2301681600,2171095414,3333,1,16,15366
1378166546,5807,31.3700008392334000,27.8796005249023440,35.2686996459960940,224.5180053710937500,-86.3114929199218800,27.8958091735839840,27.2731399536132800,53,118,88,85,56,15054,2400653238,2404704182,2403369115,2216730989,2406524342,2399951232,2326231222,2175437796,3345,0,16,8583